< < Back
Terminal Aerodrome Forecast


Current Version              Previous Versions:   1  2  3  4  5  6  7  8  9  

Terminal Aerodrome Forecast

127
FTUS42 KTAE 311100
TAFTLH
TAF
KTLH 311124Z 3112/0112 33005KT P6SM SKC
     FM311800 32009G14KT P6SM SCT250
     FM010500 31015KT P6SM SKC=



Latest METAR

276
SAUS80 KWBC 311800 RRD
MTRTLH
METAR KTLH 311753Z 32011G17KT 10SM CLR 23/03 A2990 RMK AO2 SLP122
T02280028 10233 20072 58024 $


USA.gov is the U.S. government's official web portal to all federal, state and local government web resources and services.